Cosmos 1570 Rocket - Orbit

View from above orbital plane
View from above orbital plane
View from above satellite
View from above satellite

Ground track
Ground track

The orbit data is extracted from the following two-line orbital elements,

1 15032U 84056B   13143.82928274  .00000222  00000-0  88419-4 0  1237
2 15032 074.0725 270.5737 0016541 086.6862 075.0024 14.34200465513930
Epoch (UTC): 23 May 2013 19:54:10
Eccentricity: 0.0016541
inclination: 74.0725°
perigee height: 766 km
apogee height: 789 km
right ascension of ascending node: 270.5737°
argument of perigee: 86.6862°
revolutions per day: 14.34200465
mean anomaly at epoch: 75.0024°
orbit number at epoch: 51393

The dashed part of the orbit path shows where the satellite is in the earth's shadow,  

Developed and maintained by Chris Peat, Heavens-Above GmbH. Please read the updated FAQ before sending e-mail. Imprint. DLR